Regional Weather Roundup
Issued by NWS

Home | Current Version | Previous Version | Graphics & Text | Print | Product List | Glossary Off
Versions: 1 2 3 4 5 6 7 8 9 10 11 12 13 14 15 16 17 18 19 20 21 22 23 24 25 26 27 28 29 30 31 32 33 34 35 36 37 38 39 40 41 42 43 44 45 46 47 48 49 50

000
ASUS43 KOAX 252110
RWRNE

WEATHER ROUNDUP FOR NEBRASKA
NATIONAL WEATHER SERVICE OMAHA NE
400 PM CDT MON SEP 25 2017

NOTES: SATELLITE DATA IS BEING USED TO AUGMENT CLOUD COVER ABOVE
       12000 FEET.
       "FAIR" INDICATES FEW OR NO CLOUDS BELOW 12,000 FEET WITH NO
       SIGNIFICANT WEATHER AND/OR OBSTRUCTIONS TO VISIBILITY.


NEZ001>004-019>022-054>056-252200-
NEBRASKA PANHANDLE

CITY           SKY/WX    TMP DP  RH WIND       PRES   REMARKS
SCOTTSBLUFF    CLOUDY    54  41  61 W5        30.09S
ALLIANCE       CLOUDY    51  41  68 N9        30.08F
CHADRON        CLOUDY    53  39  59 CALM      30.10S
GORDON         CLOUDY    49  42  75 NE8       30.09F
KIMBALL        CLOUDY    49  42  75 N7        30.09F
SIDNEY         CLOUDY    49  42  77 N13       30.09S
$$

NEZ057>060-069>072-079>082-252200-
SOUTHWEST NEBRASKA

CITY           SKY/WX    TMP DP  RH WIND       PRES   REMARKS
NORTH PLATTE   CLOUDY    52  48  86 N9        30.06S
IMPERIAL       LGT RAIN  50  47  89 E6        30.06S
LEXINGTON      CLOUDY    54  49  83 NE9       30.02S
MCCOOK         CLOUDY    53  50  89 N13       30.03S
OGALLALA       CLOUDY    54  46  76 NE8       30.07R
$$

NEZ005>010-023>029-035>040-094-252200-
NORTH CENTRAL NEBRASKA

CITY           SKY/WX    TMP DP  RH WIND       PRES   REMARKS
VALENTINE      CLOUDY    52  44  74 NE10      30.09R
AINSWORTH      CLOUDY    49  47  93 N12       30.08R
BROKEN BOW     LGT RAIN  52  48  86 N12       30.03S
O`NEILL        CLOUDY    50  50 100 N13       30.04F FOG
ORD            LGT RAIN  51  47  86 N14       30.02S FOG
THEDFORD       CLOUDY    50  47  88 N10       30.07F
$$

NEZ041-046>049-061>064-073>077-083>087-252200-
SOUTH CENTRAL NEBRASKA

CITY           SKY/WX    TMP DP  RH WIND       PRES   REMARKS
GRAND ISLAND   CLOUDY    53  53 100 N14       29.99F
AURORA         CLOUDY    53  53 100 N13       29.98F FOG
HASTINGS       CLOUDY    54  52  93 N16       29.98F FOG
HEBRON         LGT RAIN  60  59  97 N10       29.93S
HOLDREGE       CLOUDY    53  51  93 N9G16     29.99F
KEARNEY        LGT RAIN  53  52  96 N14       29.99F FOG
YORK           LGT RAIN  55  55 100 N8        29.97F
$$

NEZ011>018-030>034-042>045-252200-
NORTHEAST NEBRASKA

CITY           SKY/WX    TMP DP  RH WIND       PRES   REMARKS
NORFOLK        CLOUDY    54  53  97 N13       29.96F
ALBION         CLOUDY    54  52  94 N8        30.00F FOG
BLAIR          LGT RAIN  63  62  95 N8        29.93S
COLUMBUS       CLOUDY    56  55  97 N8        29.97F
FREMONT        CLOUDY    61  60  96 NW7       29.96R
TEKAMAH        CLOUDY    62  59  90 N9        29.93R
WAYNE          LGT RAIN  56  54  91 N9        29.98S
$$

NEZ050>053-065>068-078-088>093-252200-
SOUTHEAST NEBRASKA

CITY           SKY/WX    TMP DP  RH WIND       PRES   REMARKS
LINCOLN        LGT RAIN  62  59  90 N6        29.94F
OMAHA EPPLEY   LGT RAIN  65  62  90 NW8       29.92R
BEATRICE       LGT RAIN  64  63  97 NE3       29.92F
FALLS CITY     LGT RAIN  67  66  97 NW14G25   29.90R
NEBRASKA CITY  RAIN      67  67 100 W14       29.94R
PLATTSMOUTH    LGT RAIN  65  65  99 W6        29.93R
$$

NEZ044-045-051>053-067-252200-
OMAHA AREA

CITY           SKY/WX    TMP DP  RH WIND       PRES   REMARKS
OMAHA EPPLEY   LGT RAIN  65  62  90 NW8       29.92R
BLAIR          LGT RAIN  63  62  95 N8        29.93S
FREMONT        CLOUDY    61  60  96 NW7       29.96R
MILLARD        LGT RAIN  65  64  94 NW8       29.93S
OFFUTT AFB     LGT RAIN  65  63  92 W10       29.91R
PLATTSMOUTH    LGT RAIN  65  65  99 W6        29.93R
WAHOO          CLOUDY    61  60  97 NW7       29.96R
$$




USA.gov is the U.S. government's official web portal to all federal, state and local government web resources and services.